FW1757 Weather Reports


time (UTC)temp
F
wind
direction
speed
knots
gust
knots
rain 1hr
in
rain 24hr
in
rain mn
in
humidity
%
barometer
mb
20260510023002 72 47 0.0 0.0 0.00 0.00 0.00 37 1013.1
20260510022503 73 47 0.0 0.0 0.00 0.00 0.00 35 1013.1
20260510022002 73 47 0.0 0.0 0.00 0.00 0.00 36 1013.1
20260510021501 73 47 0.0 0.0 0.00 0.00 0.00 41 1013.1
20260510021001 74 47 0.0 0.0 0.00 0.00 0.00 37 1013.2
20260510020602 75 46 0.0 0.0 0.00 0.00 0.00 37 1013.3
20260510020100 75 47 0.0 0.0 0.00 0.00 0.00 35 1013.2
20260510015559 76 47 0.0 0.0 0.00 0.00 0.00 32 1013.3
20260510015102 76 47 0.0 0.0 0.00 0.00 0.00 31 1013.3
20260510014618 77 46 0.0 0.0 0.00 0.00 0.00 32 1013.5
20260510014058 77 46 0.0 0.0 0.00 0.00 0.00 33 1013.4
20260510013600 77 46 0.0 0.0 0.00 0.00 0.00 31 1013.4
20260510013057 78 46 0.0 0.0 0.00 0.00 0.00 30 1013.5
20260510012556 79 46 0.0 0.0 0.00 0.00 0.00 33 1013.5
20260510012056 80 46 0.0 0.0 0.00 0.00 0.00 31 1013.6
20260510011556 81 46 0.0 0.0 0.00 0.00 0.00 30 1013.6
20260510011055 81 46 0.0 0.0 0.00 0.00 0.00 29 1013.7
20260510010555 81 46 0.0 0.0 0.00 0.00 0.00 31 1013.7
20260510010055 82 46 0.0 0.0 0.00 0.00 0.00 30 1013.7
20260510005554 82 46 0.0 0.0 0.00 0.00 0.00 25 1013.9
20260510005056 82 46 0.0 0.0 0.00 0.00 0.00 27 1014.0
20260510004553 82 39 0.0 0.0 0.00 0.00 0.00 25 1013.8
20260510004057 82 39 0.0 0.0 0.00 0.00 0.00 28 1013.8
20260510003554 82 39 0.0 0.0 0.00 0.00 0.00 29 1013.9
20260510003057 82 38 0.0 0.0 0.00 0.00 0.00 29 1014.0
20260510002554 82 38 0.0 0.0 0.00 0.00 0.00 29 1014.0
20260510002053 82 38 0.0 0.0 0.00 0.00 0.00 29 1013.9
20260510001554 82 40 0.0 0.0 0.00 0.00 0.00 28 1013.8
20260510001052 82 37 0.0 0.0 0.00 0.00 0.00 28 1013.9
20260510000552 83 36 0.0 0.0 0.00 0.00 0.00 26 1014.1
20260510000052 83 38 0.0 0.0 0.00 0.00 0.00 26 1014.2
20260509235550 84 37 0.0 0.0 0.00 0.00 0.00 25 1014.4
20260509235049 84 38 0.0 0.0 0.00 0.00 0.00 23 1014.4
20260509234548 84 20 0.0 0.0 0.00 0.00 0.00 25 1014.5
20260509234047 84 20 0.0 0.0 0.00 0.00 0.00 26 1014.8
20260509233551 84 360 0.0 0.0 0.00 0.00 0.00 24 1014.7
20260509233051 84 5 0.0 0.0 0.00 0.00 0.00 24 1014.7
20260509232546 84 360 0.0 0.0 0.00 0.00 0.00 25 1014.9
20260509232045 84 360 0.0 0.0 0.00 0.00 0.00 25 1014.9
20260509231546 84 15 0.0 0.0 0.00 0.00 0.00 22 1015.0
20260509231046 84 11 0.0 0.0 0.00 0.00 0.00 26 1015.1
20260509230548 84 17 0.0 0.0 0.00 0.00 0.00 23 1015.2
20260509230044 84 42 0.0 0.0 0.00 0.00 0.00 22 1015.3
20260509225542 84 146 0.0 0.0 0.00 0.00 0.00 25 1015.5
20260509225047 84 348 0.0 0.0 0.00 0.00 0.00 26 1015.4
20260509224553 84 43 0.0 0.0 0.00 0.00 0.00 24 1015.6
20260509224042 84 342 0.0 0.0 0.00 0.00 0.00 27 1015.6
20260509223540 84 360 0.0 0.0 0.00 0.00 0.00 24 1015.6
20260509223039 83 25 0.0 0.0 0.00 0.00 0.00 25 1015.6
20260509222538 83 335 0.0 0.0 0.00 0.00 0.00 26 1015.9
20260509222038 83 322 0.0 0.0 0.00 0.00 0.00 27 1016.0
20260509221543 83 5 0.0 0.0 0.00 0.00 0.00 30 1016.0
20260509221036 83 345 0.0 0.0 0.00 0.00 0.00 29 1016.0
20260509220534 82 40 0.0 0.0 0.00 0.00 0.00 31 1016.1
20260509220034 81 49 0.0 0.0 0.00 0.00 0.00 27 1016.3
20260509215533 81 32 0.0 0.0 0.00 0.00 0.00 25 1016.2
20260509215034 81 24 0.0 0.0 0.00 0.00 0.00 27 1016.4
20260509214532 81 20 0.0 0.0 0.00 0.00 0.00 26 1016.5
20260509214033 81 355 0.0 0.0 0.00 0.00 0.00 30 1016.5
20260509213531 81 5 0.0 0.0 0.00 0.00 0.00 30 1016.5
20260509213029 81 26 0.0 0.0 0.00 0.00 0.00 31 1016.6
20260509212527 80 34 0.0 0.0 0.00 0.00 0.00 32 1016.7
20260509212027 80 5 0.0 0.0 0.00 0.00 0.00 34 1016.9
20260509211526 80 25 0.0 0.0 0.00 0.00 0.00 35 1017.0
20260509211026 79 65 0.0 0.0 0.00 0.00 0.00 34 1017.0
20260509210526 79 11 0.0 0.0 0.00 0.00 0.00 37 1017.1
20260509210030 78 48 0.0 0.0 0.00 0.00 0.00 38 1017.2
20260509205522 78 53 0.0 0.0 0.00 0.00 0.00 37 1017.3
20260509205020 78 38 0.0 0.0 0.00 0.00 0.00 39 1017.3
20260509204518 77 21 0.0 0.0 0.00 0.00 0.00 39 1017.2
20260509204018 77 13 0.0 0.0 0.00 0.00 0.00 38 1017.2
20260509203517 76 5 0.0 0.0 0.00 0.00 0.00 40 1017.4
20260509203017 76 34 0.0 0.0 0.00 0.00 0.00 40 1017.4
20260509202514 76 77 0.0 0.0 0.00 0.00 0.00 44 1017.5
20260509202016 75 33 0.0 0.0 0.00 0.00 0.00 42 1017.6
20260509201512 75 71 0.0 0.0 0.00 0.00 0.00 42 1017.7
20260509201013 74 9 0.0 0.0 0.00 0.00 0.00 41 1017.7
20260509200510 74 322 0.0 0.0 0.00 0.00 0.00 44 1017.9
20260509200009 74 9 0.0 0.0 0.00 0.00 0.00 45 1018.2
20260509195511 74 69 0.0 0.0 0.00 0.00 0.00 45 1018.2
20260509195010 73 11 0.0 0.0 0.00 0.00 0.00 46 1018.3
20260509194505 73 25 0.0 0.0 0.00 0.00 0.00 45 1018.4
20260509194004 73 19 0.0 0.0 0.00 0.00 0.00 49 1018.5
20260509193504 72 57 0.0 0.0 0.00 0.00 0.00 50 1018.5
20260509193003 71 15 0.0 0.0 0.00 0.00 0.00 50 1018.6
20260509192603 71 360 0.0 0.0 0.00 0.00 0.00 51 1018.7
20260509192059 71 53 0.0 0.0 0.00 0.00 0.00 50 1018.7
20260509191603 70 355 0.0 0.0 0.00 0.00 0.00 52 1018.8
20260509191057 70 355 0.0 0.0 0.00 0.00 0.00 53 1018.9
20260509190554 69 78 0.0 0.0 0.00 0.00 0.00 55 1018.9
20260509190107 69 39 0.0 0.0 0.00 0.00 0.00 55 1019.0
20260509185552 68 38 0.0 0.0 0.00 0.00 0.00 56 1019.1
20260509185051 68 37 0.0 0.0 0.00 0.00 0.00 58 1019.1
20260509184551 67 13 0.0 0.0 0.00 0.00 0.00 54 1019.2
20260509184049 67 329 0.0 0.0 0.00 0.00 0.00 55 1019.3
20260509183548 67 351 0.0 0.0 0.00 0.00 0.00 56 1019.4
20260509183047 66 351 0.0 0.0 0.00 0.00 0.00 58 1019.4
20260509182546 66 351 0.0 0.0 0.00 0.00 0.00 59 1019.5
20260509182045 66 331 0.0 0.0 0.00 0.00 0.00 58 1019.5
20260509181546 65 331 0.0 0.0 0.00 0.00 0.00 61 1019.5
20260509181043 65 330 0.0 0.0 0.00 0.00 0.00 61 1019.6
20260509180542 65 321 0.0 0.0 0.00 0.00 0.00 57 1019.6
20260509180043 64 267 0.0 0.0 0.00 0.00 0.00 60 1019.6
20260509175540 64 228 0.0 0.0 0.00 0.00 0.00 60 1019.5
20260509175039 63 215 0.0 0.0 0.00 0.00 0.00 59 1019.5
20260509174537 63 271 0.0 0.0 0.00 0.00 0.00 63 1019.6
20260509174036 62 271 0.0 0.0 0.00 0.00 0.00 61 1019.5
20260509173535 62 271 0.0 0.0 0.00 0.00 0.00 63 1019.5
20260509173033 61 269 0.0 0.0 0.00 0.00 0.00 64 1019.6
20260509172532 60 265 0.0 0.0 0.00 0.00 0.00 66 1019.6
20260509172031 60 265 0.0 0.0 0.00 0.00 0.00 66 1019.6
20260509171537 60 265 0.0 0.0 0.00 0.00 0.00 66 1019.7
20260509171028 59 265 0.0 0.0 0.00 0.00 0.00 67 1019.8
20260509170531 58 265 0.0 0.0 0.00 0.00 0.00 67 1019.9
20260509170030 58 259 0.0 0.0 0.00 0.00 0.00 68 1019.9
20260509165525 58 259 0.0 0.0 0.00 0.00 0.00 68 1020.0
20260509165026 57 259 0.0 0.0 0.00 0.00 0.00 68 1019.8
20260509164524 57 259 0.0 0.0 0.00 0.00 0.00 68 1019.9
20260509164026 56 259 0.0 0.0 0.00 0.00 0.00 68 1019.9
20260509163529 56 259 0.0 0.0 0.00 0.00 0.00 68 1020.0
20260509163026 56 257 0.0 0.0 0.00 0.00 0.00 67 1020.1
20260509162524 55 257 0.0 0.0 0.00 0.00 0.00 65 1020.1
20260509162023 55 257 0.0 0.0 0.00 0.00 0.00 63 1020.1
20260509161524 55 257 0.0 0.0 0.00 0.00 0.00 63 1020.3
20260509161024 54 257 0.0 0.0 0.00 0.00 0.00 64 1020.3
20260509160522 54 257 0.0 0.0 0.00 0.00 0.00 63 1020.2
20260509160024 54 257 0.0 0.0 0.00 0.00 0.00 63 1020.4
20260509155522 54 255 0.0 0.0 0.00 0.00 0.00 60 1020.4
20260509155022 54 274 0.0 0.0 0.00 0.00 0.00 58 1020.4
20260509154522 53 263 0.0 0.0 0.00 0.00 0.00 57 1020.6
20260509154024 53 252 0.0 0.0 0.00 0.00 0.00 55 1020.4
20260509153522 53 230 0.0 0.0 0.00 0.00 0.00 52 1020.4
20260509153020 53 275 0.0 0.0 0.00 0.00 0.00 49 1020.3
20260509152520 52 275 0.0 0.0 0.00 0.00 0.00 48 1020.2
20260509152020 52 275 0.0 0.0 0.00 0.00 0.00 45 1020.3
20260509151520 52 275 0.0 0.0 0.00 0.00 0.00 42 1020.2
20260509151019 52 275 0.0 0.0 0.00 0.00 0.00 42 1020.2
20260509150519 52 275 0.0 0.0 0.00 0.00 0.00 40 1020.2
20260509150031 51 275 0.0 0.0 0.00 0.00 0.00 39 1020.2
20260509145520 51 275 0.0 0.0 0.00 0.00 0.00 35 1020.2
20260509145019 51 275 0.0 0.0 0.00 0.00 0.00 31 1020.3
20260509144529 51 275 0.0 0.0 0.00 0.00 0.00 29 1020.4
20260509144021 51 275 0.0 0.0 0.00 0.00 0.00 27 1020.3
20260509143518 51 274 0.0 0.0 0.00 0.00 0.00 23 1020.3
20260509143019 51 273 0.0 0.0 0.00 0.00 0.00 17 1020.3
20260509142517 50 273 0.0 0.0 0.00 0.00 0.00 22 1020.3
20260509142018 50 273 0.0 0.0 0.00 0.00 0.00 21 1020.3
20260509141521 50 273 0.0 0.0 0.00 0.00 0.00 20 1020.1
20260509141019 50 273 0.0 0.0 0.00 0.00 0.00 20 1020.0
20260509140516 50 273 0.0 0.0 0.00 0.00 0.00 20 1020.0
20260509140015 50 272 0.0 0.0 0.00 0.00 0.00 21 1020.1
20260509135516 49 273 0.0 0.0 0.00 0.00 0.00 22 1019.9
20260509135016 49 272 0.0 0.0 0.00 0.00 0.00 22 1020.0
20260509134515 49 360 0.0 0.0 0.00 0.00 0.00 21 1020.0
20260509134015 49 360 0.0 0.0 0.00 0.00 0.00 21 1020.0
20260509133515 49 360 0.0 0.0 0.00 0.00 0.00 22 1020.2
20260509133013 49 360 0.0 0.0 0.00 0.00 0.00 25 1020.2
20260509132516 49 271 0.0 0.0 0.00 0.00 0.00 27 1020.1
20260509132013 49 271 0.0 0.0 0.00 0.00 0.00 28 1020.0
20260509131510 49 270 0.0 0.0 0.00 0.00 0.00 30 1019.9
20260509131010 49 271 0.0 0.0 0.00 0.00 0.00 31 1019.9
20260509130509 49 360 0.0 0.0 0.00 0.00 0.00 33 1019.8
20260509130013 49 360 0.0 0.0 0.00 0.00 0.00 36 1019.8
20260509125508 49 360 0.0 0.0 0.00 0.00 0.00 37 1019.8
20260509125011 49 360 0.0 0.0 0.00 0.00 0.00 40 1019.7
20260509124509 49 360 0.0 0.0 0.00 0.00 0.00 43 1019.6
20260509124005 49 360 0.0 0.0 0.00 0.00 0.00 44 1019.7
20260509123506 49 273 0.0 0.0 0.00 0.00 0.00 47 1019.6
20260509123004 49 273 0.0 0.0 0.00 0.00 0.00 50 1019.5
20260509122502 50 273 0.0 0.0 0.00 0.00 0.00 55 1019.6
20260509122001 50 273 0.0 0.0 0.00 0.00 0.00 56 1019.6
20260509121600 50 273 0.0 0.0 0.00 0.00 0.00 57 1019.5
20260509121059 51 273 0.0 0.0 0.00 0.00 0.00 58 1019.5
20260509120600 51 273 0.0 0.0 0.00 0.00 0.00 61 1019.5
20260509120057 51 273 0.0 0.0 0.00 0.00 0.00 62 1019.4
20260509115555 52 273 0.0 0.0 0.00 0.00 0.00 64 1019.4
20260509115053 52 273 0.0 0.0 0.00 0.00 0.00 65 1019.3
20260509114555 53 273 0.0 0.0 0.00 0.00 0.00 66 1019.4
20260509114053 53 273 0.0 0.0 0.00 0.00 0.00 67 1019.3
20260509113553 54 273 0.0 0.0 0.00 0.00 0.00 67 1019.2
20260509113057 54 273 0.0 0.0 0.00 0.00 0.00 68 1019.3
20260509112552 54 273 0.0 0.0 0.00 0.00 0.00 68 1019.2
20260509112052 55 273 0.0 0.0 0.00 0.00 0.00 68 1019.2
20260509111552 55 273 0.0 0.0 0.00 0.00 0.00 68 1019.0
20260509111052 55 232 0.0 0.0 0.00 0.00 0.00 68 1019.0
20260509110555 55 265 0.0 0.0 0.00 0.00 0.00 68 1018.9
20260509110051 55 269 0.0 0.0 0.00 0.00 0.00 68 1019.0
20260509105550 55 276 0.0 0.0 0.00 0.00 0.00 68 1019.1
20260509105050 55 294 0.0 0.0 0.00 0.00 0.00 68 1019.1
20260509104550 54 277 0.0 0.0 0.00 0.00 0.00 68 1019.0
20260509104048 54 270 0.0 0.0 0.00 0.00 0.00 68 1019.0
20260509103548 54 259 0.0 0.0 0.00 0.00 0.00 68 1019.1
20260509103053 54 247 0.0 0.0 0.00 0.00 0.00 68 1019.1
20260509102548 54 274 0.0 0.0 0.00 0.00 0.00 67 1019.2
20260509102048 54 275 0.0 0.0 0.00 0.00 0.00 67 1019.2
20260509101552 54 255 0.0 0.0 0.00 0.00 0.00 67 1019.2
20260509101046 54 231 0.0 0.0 0.00 0.00 0.00 67 1019.2
20260509100546 54 256 0.0 0.0 0.00 0.00 0.00 67 1019.2
20260509100046 54 259 0.0 0.0 0.00 0.00 0.00 67 1019.3
20260509095546 54 283 0.0 0.0 0.00 0.00 0.00 67 1019.4
20260509095046 53 257 0.0 0.0 0.00 0.00 0.00 67 1019.4
20260509094546 53 256 0.0 0.0 0.00 0.00 0.00 66 1019.3
20260509094044 53 252 0.0 0.0 0.00 0.00 0.00 66 1019.3
20260509093544 53 237 0.0 0.0 0.00 0.00 0.00 66 1019.4
20260509093144 53 244 0.0 0.0 0.00 0.00 0.00 66 1019.5
20260509092543 53 215 0.0 0.0 0.00 0.00 0.00 65 1019.5
20260509092046 53 254 0.0 0.0 0.00 0.00 0.00 65 1019.4
20260509091543 53 273 0.0 0.0 0.00 0.00 0.00 65 1019.6
20260509091045 53 234 0.0 0.0 0.00 0.00 0.00 65 1019.6
20260509090542 53 261 0.0 0.0 0.00 0.00 0.00 65 1019.6
20260509090041 53 232 0.0 0.0 0.00 0.00 0.00 65 1019.6
20260509085540 53 233 0.0 0.0 0.00 0.00 0.00 66 1019.6
20260509085039 53 233 0.0 0.0 0.00 0.00 0.00 66 1019.7
20260509084542 54 233 0.0 0.0 0.00 0.00 0.00 66 1019.7
20260509084037 54 271 0.0 0.0 0.00 0.00 0.00 67 1019.8
20260509083535 54 269 0.0 0.0 0.00 0.00 0.00 67 1019.8
20260509083043 55 269 0.0 0.0 0.00 0.00 0.00 67 1019.9
20260509082535 55 269 0.0 0.0 0.00 0.00 0.00 68 1019.8
20260509082034 55 269 0.0 0.0 0.00 0.00 0.00 68 1019.9
20260509081534 55 269 0.0 0.0 0.00 0.00 0.00 68 1019.9
20260509081034 55 269 0.0 0.0 0.00 0.00 0.00 68 1019.9
20260509080536 55 269 0.0 0.0 0.00 0.00 0.00 68 1020.0
20260509080037 55 269 0.0 0.0 0.00 0.00 0.00 68 1020.0
20260509075532 55 256 0.0 0.0 0.00 0.00 0.00 68 1019.9
20260509075034 56 273 0.0 0.0 0.00 0.00 0.00 68 1019.9
20260509074532 56 288 0.0 0.0 0.00 0.00 0.00 68 1019.9
20260509074030 56 287 0.0 0.0 0.00 0.00 0.00 68 1020.0
20260509073534 56 283 0.0 0.0 0.00 0.00 0.00 68 1020.0
20260509073029 56 282 0.0 0.0 0.00 0.00 0.00 67 1020.0
20260509072529 56 272 0.0 0.0 0.00 0.00 0.00 66 1019.9
20260509072030 56 272 0.0 0.0 0.00 0.00 0.00 66 1019.9
20260509071526 57 272 0.0 0.0 0.00 0.00 0.00 66 1019.9
20260509071025 57 272 0.0 0.0 0.00 0.00 0.00 66 1019.8
20260509070528 58 272 0.0 0.0 0.00 0.00 0.00 65 1019.9
20260509070023 58 272 0.0 0.0 0.00 0.00 0.00 65 1019.7
20260509065522 58 272 0.0 0.0 0.00 0.00 0.00 64 1019.6
20260509065022 58 292 0.0 0.0 0.00 0.00 0.00 64 1019.6
20260509064522 58 236 0.0 0.0 0.00 0.00 0.00 64 1019.7
20260509064022 58 223 0.0 0.0 0.00 0.00 0.00 64 1019.6
20260509063524 58 211 0.0 0.0 0.00 0.00 0.00 64 1019.7
20260509063021 58 250 0.0 0.0 0.00 0.00 0.00 64 1019.5
20260509062521 58 237 0.0 0.0 0.00 0.00 0.00 64 1019.5
20260509062022 58 219 0.0 0.0 0.00 0.00 0.00 64 1019.5
20260509061525 58 254 0.0 0.0 0.00 0.00 0.00 64 1019.5
20260509061021 58 279 0.0 0.0 0.00 0.00 0.00 64 1019.3
20260509060521 58 232 0.0 0.0 0.00 0.00 0.00 64 1019.3
20260509060021 58 232 0.0 0.0 0.00 0.00 0.00 64 1019.3
20260509055521 58 256 0.0 0.0 0.00 0.00 0.00 63 1019.4
20260509055020 58 302 0.0 0.0 0.00 0.00 0.00 63 1019.4
20260509054520 58 288 0.0 0.0 0.00 0.00 0.00 63 1019.5
20260509054020 58 281 0.0 0.0 0.00 0.00 0.00 62 1019.5
20260509053521 58 277 0.0 0.0 0.00 0.00 0.00 62 1019.6
20260509053020 58 249 0.0 0.0 0.00 0.00 0.00 62 1019.6
20260509052519 59 263 0.0 0.0 0.00 0.00 0.00 61 1019.7
20260509052018 59 318 0.0 0.0 0.00 0.00 0.00 61 1019.6
20260509051520 59 252 0.0 0.0 0.00 0.00 0.00 61 1019.6
20260509051018 59 257 0.0 0.0 0.00 0.00 0.00 61 1019.7
20260509050522 59 232 0.0 0.0 0.00 0.00 0.00 61 1019.6
20260509050018 59 275 0.0 0.0 0.00 0.00 0.00 60 1019.7
20260509045522 59 255 0.0 0.0 0.00 0.00 0.00 60 1019.6
20260509045016 59 296 0.0 0.0 0.00 0.00 0.00 60 1019.5
20260509044517 59 274 0.0 0.0 0.00 0.00 0.00 59 1019.4
20260509044016 59 249 0.0 0.0 0.00 0.00 0.00 59 1019.5
20260509043519 60 233 0.0 0.0 0.00 0.00 0.00 59 1019.5
20260509043015 60 276 0.0 0.0 0.00 0.00 0.00 58 1019.4
20260509042515 60 247 0.0 0.0 0.00 0.00 0.00 58 1019.5
20260509042015 60 250 0.0 0.0 0.00 0.00 0.00 58 1019.5
20260509041514 60 255 0.0 0.0 0.00 0.00 0.00 58 1019.5
20260509041014 60 261 0.0 0.0 0.00 0.00 0.00 58 1019.4
20260509040513 61 253 0.0 0.0 0.00 0.00 0.00 57 1019.4
20260509040012 61 252 0.0 0.0 0.00 0.00 0.00 57 1019.3
20260509035515 61 242 0.0 0.0 0.00 0.00 0.00 57 1019.1
20260509035015 61 279 0.0 0.0 0.00 0.00 0.00 57 1019.0
20260509034533 61 225 0.0 0.0 0.00 0.00 0.00 56 1019.0
20260509034010 61 246 0.0 0.0 0.00 0.00 0.00 56 1018.9
20260509033510 61 285 0.0 0.0 0.00 0.00 0.00 56 1018.9
20260509033011 61 273 0.0 0.0 0.00 0.00 0.00 56 1019.0
20260509032510 61 288 0.0 0.0 0.00 0.00 0.00 55 1018.9
20260509032012 62 211 0.0 0.0 0.00 0.00 0.00 55 1018.8
20260509031510 62 281 0.0 0.0 0.00 0.00 0.00 55 1018.7
20260509031009 62 243 0.0 0.0 0.00 0.00 0.00 54 1018.7
20260509030510 62 269 0.0 0.0 0.00 0.00 0.00 54 1018.7
20260509030008 62 285 0.0 0.0 0.00 0.00 0.00 53 1018.6
20260509025509 63 311 0.0 0.0 0.00 0.00 0.00 53 1018.6
20260509025007 63 280 0.0 0.0 0.00 0.00 0.00 53 1018.5
20260509024506 63 257 0.0 0.0 0.00 0.00 0.00 52 1018.4
20260509024006 63 259 0.0 0.0 0.00 0.00 0.00 52 1018.4
20260509023506 63 281 0.0 0.0 0.00 0.00 0.00 52 1018.3